{"data":{"norad_id":67693,"epoch":"2026-09-19T14:42:38.453184Z","epoch_age_seconds":145467,"freshness":"FRESH","line1":"1 67693U 26025A   26262.61294506  .00017467  00000+0  54216-3 0  9992","line2":"2 67693  97.2871  12.5818 0001782  90.6197 269.5250 15.33441028 35730","mean_motion":15.33441028,"eccentricity":0.0001782,"inclination_deg":97.2871,"raan_deg":12.5818,"arg_perigee_deg":90.6197,"mean_anomaly_deg":269.525,"bstar":0.00054216,"rev_number":3573,"period_min":93.906447897649,"perigee_km":464.33544646806,"apogee_km":466.77453829414,"semimajor_km":6843.6919923811,"source":"CELESTRAK","updated_at":"2026-09-20T09:00:43.625725Z"}}